Weather History for KFGN - June, 2014

Change the Weather History Date:

Monday, June 30, 2014

  Actual Average Record
Temperature  
Mean Temperature 62 °F -  
Max Temperature 64 °F 68 °F 86 °F (2002)
Min Temperature 59 °F 56 °F 50 °F (2001)
Degree Days  
Heating Degree Days 4    
Growing Degree Days 12 (Base 50)    
Moisture  
Dew Point 59 °F    
Average Humidity 90    
Maximum Humidity 94    
Minimum Humidity 77    
Precipitation  
Precipitation 0.01 in - - ()
Sea Level Pressure  
Sea Level Pressure 29.26 in    
Wind  
Wind Speed 22 mph (WSW)    
Max Wind Speed 29 mph    
Max Gust Speed 38 mph    
Visibility 8 miles    
Events Rain    
Averages and records for this station are not official NWS values.
T = Trace of Precipitation, MM = Missing Value Source: NWS Daily Summary

Daily Weather History Graph

Daily Weather History Graph

Search for Another Location

Airport or City:

Trip Planner

Search our weather history database for the weather conditions in past years. The results will help you decide how hot, cold, wet, or windy it might be!

Date:

Astronomy

Jun. 30, 2014 Rise Set
Actual Time 5:17 AM CDT 9:28 PM CDT
Civil Twilight 4:34 AM CDT 10:11 PM CDT
Nautical Twilight 3:32 AM CDT 11:13 PM CDT
Astronomical Twilight 1:55 AM CDT 12:50 AM CDT
Moon 8:51 AM CDT (6/30) 10:59 PM CDT (6/30)
Length of Visible Light 17h 37m
Length of Day
16h 11m
Waxing Crescent, 10% of the Moon is Illuminated
Jun 30
Waxing Crescent
Jul 5
First Quarter
Jul 12
Full
Jul 18
Last Quarter
Jul 26
New

Hourly Weather History & Observations

Time (CDT) Temp. Dew Point Humidity Pressure Visibility Wind Dir Wind Speed Gust Speed Precip Events Conditions
10:01 AM - - N/A% - - North - - N/A   Unknown
10:30 AM 62.6 °F 59.0 °F 88% 29.22 in 7.0 mi SW 24.2 mph 36.8 mph N/A   Light Drizzle
10:34 AM 62.6 °F 59.0 °F 88% 29.22 in 7.0 mi SW 25.3 mph 36.8 mph N/A   Light Drizzle
10:54 AM 62.6 °F 59.0 °F 88% 29.22 in 10.0 mi WSW 28.8 mph 34.5 mph N/A   Light Drizzle
11:14 AM 62.6 °F 59.0 °F 88% 29.22 in 10.0 mi SW 26.5 mph 34.5 mph N/A   Overcast
11:34 AM 62.6 °F 57.2 °F 82% 29.23 in 10.0 mi SW 21.9 mph 33.4 mph N/A Rain Light Rain
11:54 AM 62.6 °F 59.0 °F 88% 29.23 in 10.0 mi SW 23.0 mph 31.1 mph N/A   Overcast
12:14 PM 62.6 °F 59.0 °F 88% 29.24 in 10.0 mi SW 18.4 mph 26.5 mph N/A   Light Drizzle
12:34 PM 64.4 °F 59.0 °F 83% 29.24 in 10.0 mi SW 23.0 mph 28.8 mph N/A   Overcast
12:54 PM 64.4 °F 59.0 °F 83% 29.24 in 10.0 mi SW 20.7 mph 27.6 mph N/A   Overcast
1:14 PM 64.4 °F 57.2 °F 77% 29.25 in 10.0 mi SW 24.2 mph 32.2 mph N/A   Overcast
1:34 PM 62.6 °F 57.2 °F 82% 29.24 in 10.0 mi SW 24.2 mph 35.7 mph N/A   Overcast
1:54 PM 64.4 °F 59.0 °F 83% 29.25 in 10.0 mi SW 21.9 mph 28.8 mph N/A   Overcast
2:14 PM 64.4 °F 59.0 °F 83% 29.25 in 10.0 mi SW 26.5 mph 31.1 mph N/A   Overcast
2:34 PM 62.6 °F 59.0 °F 88% 29.26 in 7.0 mi SW 19.6 mph 27.6 mph N/A   Overcast
2:54 PM 62.6 °F 59.0 °F 88% 29.25 in 7.0 mi SW 24.2 mph 32.2 mph N/A   Overcast
3:14 PM 62.6 °F 60.8 °F 94% 29.25 in 3.0 mi SSW 21.9 mph - N/A   Light Drizzle
3:35 PM 62.6 °F 59.0 °F 88% 29.25 in 7.0 mi SW 24.2 mph 38.0 mph N/A   Overcast
3:54 PM 62.6 °F 60.8 °F 94% 29.25 in 4.0 mi SW 25.3 mph - N/A Rain Light Rain
4:14 PM 62.6 °F 60.8 °F 94% 29.25 in 2.0 mi SW 21.9 mph 31.1 mph N/A Rain Light Rain
4:35 PM 62.6 °F 60.8 °F 94% 29.25 in 4.0 mi SSW 19.6 mph - N/A Rain Light Rain
4:54 PM 62.6 °F 60.8 °F 94% 29.24 in 7.0 mi SW 21.9 mph 28.8 mph N/A Rain Light Rain
5:14 PM 62.6 °F 60.8 °F 94% 29.24 in 5.0 mi SW 23.0 mph 27.6 mph N/A Rain Light Rain
5:35 PM 62.6 °F 60.8 °F 94% 29.25 in 10.0 mi SW 17.3 mph 24.2 mph N/A Rain Light Rain
5:54 PM 62.6 °F 60.8 °F 94% 29.25 in 7.0 mi SW 17.3 mph - N/A   Light Drizzle
6:14 PM 62.6 °F 60.8 °F 94% 29.26 in 7.0 mi SW 16.1 mph 21.9 mph N/A   Light Drizzle
6:33 PM 62.6 °F 60.8 °F 94% 29.26 in 10.0 mi SW 13.8 mph - N/A   Overcast
6:54 PM 62.6 °F 60.8 °F 94% 29.27 in 10.0 mi SW 12.7 mph - N/A   Overcast
7:15 PM 62.6 °F 60.8 °F 94% 29.27 in 7.0 mi WSW 11.5 mph - N/A Rain Rain
7:34 PM 62.6 °F 60.8 °F 94% 29.28 in 7.0 mi WSW 11.5 mph - N/A   Light Drizzle
7:54 PM 62.6 °F 60.8 °F 94% 29.28 in 4.0 mi West 10.4 mph - N/A   Drizzle
8:15 PM 62.6 °F 60.8 °F 94% 29.28 in 7.0 mi WNW 13.8 mph - N/A Rain Light Rain
8:34 PM 62.6 °F 60.8 °F 94% 29.29 in 7.0 mi NW 17.3 mph - N/A Rain Light Rain
8:54 PM 62.6 °F 60.8 °F 94% 29.30 in 5.0 mi WNW 16.1 mph 21.9 mph N/A Rain Light Rain
9:15 PM 62.6 °F 60.8 °F 94% 29.30 in 10.0 mi WNW 16.1 mph 20.7 mph N/A Rain Light Rain
9:34 PM 60.8 °F 59.0 °F 94% 29.31 in 10.0 mi NW 16.1 mph 24.2 mph N/A Rain Rain
9:54 PM 60.8 °F 59.0 °F 94% 29.32 in 10.0 mi NW 19.6 mph 26.5 mph 0.01 in Rain Light Rain
10:15 PM 60.8 °F 57.2 °F 88% 29.32 in 10.0 mi NW 17.3 mph 28.8 mph N/A   Overcast
10:34 PM 60.8 °F 57.2 °F 88% 29.33 in 10.0 mi NW 20.7 mph - N/A   Overcast
10:54 PM 60.8 °F 57.2 °F 88% 29.33 in 10.0 mi NW 20.7 mph 29.9 mph N/A   Overcast
11:14 PM 59.0 °F 57.2 °F 94% 29.34 in 10.0 mi WNW 25.3 mph 32.2 mph N/A   Overcast
11:34 PM 59.0 °F 57.2 °F 94% 29.33 in 10.0 mi WNW 26.5 mph 32.2 mph N/A   Overcast